Location: Vancouver
(49.2827°N, 123.1207°W)
Time: 23:23:41
(UTC-07:00)

ISS - Pass Details

Date: 28 June 2024
Orbit: 410 x 424 km, 51.6° (Epoch: 12 July)

Event Time Altitude Azimuth Distance (km) Brightness Sun altitude
Exits shadow 03:18:08 22° 199° (SSW) 944 -2.6 -12.5°
Maximum altitude 03:19:41 36° 148° (SSE) 678 -3.0 -12.4°
Drops below altitude 10° 03:22:47 10° 80° (E) 1,494 -0.4 -12.2°
Sets 03:24:59 0° 71° (ENE) 2,364 0.9 -12.0°
